Location: Sweet Grass
(48.9965°N, 111.9649°W)
Time: 08:14:15
(UTC+00:00)

N. Korean satellite - Pass Details

Date: 05 December 2022
Orbit: 407 x 442 km, 97.3° (Epoch: 04 February)

Event Time Altitude Azimuth Distance (km) Brightness Sun altitude
Rises 00:56:47 0° 209° (SSW) 2,455 10.9 -13.3°
Reaches altitude 10° 00:59:33 10° 235° (SW) 1,602 10.5 -13.7°
Maximum altitude 01:01:29 14° 270° (W) 1,368 10.0 -14.0°
Drops below altitude 10° 01:03:27 10° 304° (NW) 1,624 9.7 -14.3°
Sets 01:06:19 0° 330° (NNW) 2,515 10.4 -14.8°
